ITY9934 LIRF-LPPR

Flight info

Callsign ITY9934
Flight time 2h 38m
Altitude 37000
Route ESINO Z924 ABIDU/N0451F350 DCT POZZO DCT EPIKU/N0449F360 DCT GINOX DCT KIFMI DCT ELVOP DCT MUREN DCT CHELY DCT VERSO/N0454F370 M601 BCN N725 DGO DCT NEA DCT ZMR L155 ADORO DCT CANAR DCT INKIT
Aircraft A320/M-SDE3FGHIRWY/LB1

Departure

Time 2026-05-05 18:23
Airport Rome–Fiumicino Leonardo da Vinci International Airport (LIRF)

Arrival

Time 2026-05-05 21:02
Airport Francisco de Sá Carneiro Airport (LPPR)
Time Latitude Longitude Altitude Speed Heading
2026-05-05 17:49 41.79693 12.25614 14 ft 0 kts 295°
2026-05-05 17:50 41.79729 12.25637 14 ft 0 kts 295°
2026-05-05 18:13 41.79721 12.25660 14 ft 4 kts 295°
2026-05-05 18:13 41.79712 12.25686 15 ft 4 kts 310°
2026-05-05 18:13 41.79693 12.25696 16 ft 4 kts 17°
2026-05-05 18:13 41.79688 12.25694 15 ft 4 kts 25°
2026-05-05 18:14 41.79713 12.25710 16 ft 4 kts 25°
2026-05-05 18:14 41.79737 12.25725 14 ft 4 kts 25°
2026-05-05 18:14 41.79762 12.25740 14 ft 4 kts 25°
2026-05-05 18:14 41.79786 12.25756 14 ft 4 kts 25°
2026-05-05 18:15 41.79797 12.25762 15 ft 0 kts 25°
2026-05-05 18:18 41.79802 12.25765 16 ft 5 kts 25°
2026-05-05 18:18 41.79857 12.25809 14 ft 9 kts 34°
2026-05-05 18:18 41.79909 12.25844 14 ft 8 kts 24°
2026-05-05 18:18 41.79953 12.25872 15 ft 6 kts 25°
2026-05-05 18:19 41.80024 12.25916 14 ft 20 kts 25°
2026-05-05 18:19 41.80155 12.25997 14 ft 20 kts 24°
2026-05-05 18:19 41.80277 12.26072 14 ft 18 kts 25°
2026-05-05 18:19 41.80385 12.26140 15 ft 16 kts 25°
2026-05-05 18:20 41.80479 12.26173 16 ft 13 kts 16°
2026-05-05 18:20 41.80530 12.26249 16 ft 11 kts 67°
2026-05-05 18:20 41.80554 12.26334 16 ft 9 kts 69°
2026-05-05 18:20 41.80574 12.26404 16 ft 9 kts 69°
2026-05-05 18:21 41.80596 12.26483 17 ft 8 kts 69°
2026-05-05 18:21 41.80617 12.26561 15 ft 11 kts 70°
2026-05-05 18:21 41.80645 12.26661 15 ft 11 kts 69°
2026-05-05 18:21 41.80673 12.26763 14 ft 15 kts 69°
2026-05-05 18:22 41.80721 12.26940 16 ft 21 kts 70°
2026-05-05 18:22 41.80826 12.27031 15 ft 20 kts 344°
2026-05-05 18:22 41.80943 12.26963 13 ft 17 kts 313°
2026-05-05 18:22 41.80926 12.26812 14 ft 24 kts 249°
2026-05-05 18:23 41.80778 12.26274 19 ft 96 kts 250°
2026-05-05 18:23 41.80474 12.25182 16 ft 152 kts 249°
2026-05-05 18:23 41.80065 12.23710 282 ft 172 kts 246°
2026-05-05 18:23 41.79647 12.22209 938 ft 173 kts 243°
2026-05-05 18:24 41.79325 12.20610 1455 ft 191 kts 260°
2026-05-05 18:24 41.79295 12.18750 1915 ft 205 kts 263°
2026-05-05 18:24 41.79254 12.16836 2627 ft 205 kts 261°
2026-05-05 18:24 41.78921 12.15051 3362 ft 199 kts 239°
2026-05-05 18:25 41.78073 12.13600 3993 ft 200 kts 219°
2026-05-05 18:25 41.77360 12.12770 4436 ft 202 kts 219°
2026-05-05 18:25 41.75963 12.11119 5392 ft 203 kts 221°
2026-05-05 18:25 41.74909 12.09841 6030 ft 205 kts 221°
2026-05-05 18:26 41.73851 12.08546 6658 ft 210 kts 223°
2026-05-05 18:26 41.72772 12.07202 7246 ft 213 kts 223°
2026-05-05 18:26 41.71689 12.05832 7865 ft 215 kts 224°
2026-05-05 18:26 41.70492 12.04654 8551 ft 216 kts 204°
2026-05-05 18:27 41.68976 12.04257 8946 ft 237 kts 181°
2026-05-05 18:27 41.67247 12.04337 9252 ft 258 kts 181°
2026-05-05 18:27 41.65392 12.04288 9656 ft 272 kts 193°
2026-05-05 18:27 41.63551 12.03647 10228 ft 280 kts 201°
2026-05-05 18:28 41.59991 12.00788 10652 ft 320 kts 218°
2026-05-05 18:28 41.58174 11.98989 11163 ft 329 kts 218°
2026-05-05 18:28 41.56330 11.97154 11848 ft 333 kts 218°
2026-05-05 18:29 41.54464 11.95299 12548 ft 335 kts 218°
2026-05-05 18:29 41.52579 11.93430 13224 ft 340 kts 218°
2026-05-05 18:29 41.50676 11.91544 13871 ft 343 kts 218°
2026-05-05 18:29 41.48750 11.89632 14465 ft 346 kts 218°
2026-05-05 18:30 41.46811 11.87712 15066 ft 349 kts 218°
2026-05-05 18:30 41.44856 11.85780 15674 ft 351 kts 218°
2026-05-05 18:30 41.42886 11.83834 16261 ft 354 kts 218°
2026-05-05 18:30 41.40910 11.81856 16849 ft 356 kts 221°
2026-05-05 18:31 41.39166 11.79513 17425 ft 358 kts 232°
2026-05-05 18:31 41.37836 11.76705 17986 ft 361 kts 246°
2026-05-05 18:31 41.37113 11.73507 18557 ft 363 kts 256°
2026-05-05 18:31 41.36562 11.70216 19069 ft 366 kts 256°
2026-05-05 18:32 41.36019 11.66893 19577 ft 368 kts 257°
2026-05-05 18:32 41.35480 11.63545 20066 ft 372 kts 257°
2026-05-05 18:32 41.34939 11.60167 20561 ft 374 kts 257°
2026-05-05 18:32 41.34394 11.56774 21065 ft 377 kts 257°
2026-05-05 18:33 41.33841 11.53352 21569 ft 379 kts 257°
2026-05-05 18:33 41.33281 11.49906 22059 ft 382 kts 257°
2026-05-05 18:33 41.32719 11.46443 22537 ft 385 kts 257°
2026-05-05 18:33 41.32152 11.42954 23009 ft 387 kts 257°
2026-05-05 18:34 41.31586 11.39490 23462 ft 390 kts 257°
2026-05-05 18:34 41.31008 11.35959 23858 ft 392 kts 257°
2026-05-05 18:34 41.30424 11.32411 24252 ft 393 kts 257°
2026-05-05 18:34 41.29838 11.28861 24687 ft 393 kts 257°
2026-05-05 18:35 41.29252 11.25316 25126 ft 393 kts 257°
2026-05-05 18:35 41.28664 11.21770 25529 ft 393 kts 257°
2026-05-05 18:35 41.28077 11.18222 25913 ft 393 kts 257°
2026-05-05 18:35 41.27489 11.14667 26292 ft 394 kts 257°
2026-05-05 18:36 41.26892 11.11059 26666 ft 395 kts 257°
2026-05-05 18:36 41.26300 11.07495 27025 ft 396 kts 257°
2026-05-05 18:36 41.25702 11.03919 27378 ft 397 kts 257°
2026-05-05 18:36 41.25110 11.00384 27712 ft 397 kts 257°
2026-05-05 18:37 41.24510 10.96798 28059 ft 398 kts 257°
2026-05-05 18:37 41.23910 10.93215 28423 ft 398 kts 257°
2026-05-05 18:37 41.23307 10.89625 28756 ft 398 kts 257°
2026-05-05 18:37 41.22701 10.86037 29067 ft 399 kts 257°
2026-05-05 18:38 41.22090 10.82436 29371 ft 400 kts 257°
2026-05-05 18:38 41.21478 10.78835 29667 ft 400 kts 257°
2026-05-05 18:38 41.20868 10.75222 29950 ft 401 kts 257°
2026-05-05 18:38 41.20258 10.71607 30189 ft 402 kts 257°
2026-05-05 18:39 41.19643 10.67985 30401 ft 403 kts 257°
2026-05-05 18:39 41.19021 10.64350 30594 ft 404 kts 257°
2026-05-05 18:39 41.18399 10.60712 30838 ft 404 kts 257°
2026-05-05 18:39 41.17775 10.57080 31119 ft 403 kts 256°
2026-05-05 18:40 41.17153 10.53461 31403 ft 402 kts 256°
2026-05-05 18:40 41.16532 10.49855 31691 ft 400 kts 256°
2026-05-05 18:40 41.15909 10.46260 31967 ft 399 kts 256°
2026-05-05 18:40 41.15288 10.42674 32244 ft 399 kts 256°
2026-05-05 18:41 41.14668 10.39092 32512 ft 398 kts 256°
2026-05-05 18:41 41.14049 10.35519 32781 ft 397 kts 256°
2026-05-05 18:41 41.13431 10.31956 33047 ft 396 kts 256°
2026-05-05 18:41 41.12815 10.28398 33313 ft 396 kts 256°
2026-05-05 18:42 41.12196 10.24843 33568 ft 395 kts 256°
2026-05-05 18:42 41.11577 10.21293 33833 ft 394 kts 256°
2026-05-05 18:42 41.10957 10.17757 34105 ft 393 kts 256°
2026-05-05 18:42 41.10336 10.14230 34315 ft 393 kts 256°
2026-05-05 18:43 41.09713 10.10702 34512 ft 393 kts 256°
2026-05-05 18:43 41.09091 10.07177 34722 ft 393 kts 256°
2026-05-05 18:43 41.08468 10.03646 34923 ft 393 kts 256°
2026-05-05 18:43 41.08056 10.01313 35053 ft 393 kts 256°
2026-05-05 18:44 41.07432 9.97793 35239 ft 393 kts 256°
2026-05-05 18:44 41.06807 9.94272 35426 ft 392 kts 256°
2026-05-05 18:44 41.06184 9.90757 35608 ft 392 kts 256°
2026-05-05 18:44 41.05559 9.87235 35784 ft 392 kts 256°
2026-05-05 18:45 41.04935 9.83726 35941 ft 392 kts 256°
2026-05-05 18:45 41.04308 9.80219 35974 ft 390 kts 256°
2026-05-05 18:45 41.03054 9.73247 35973 ft 388 kts 256°
2026-05-05 18:46 41.01803 9.66296 35974 ft 388 kts 256°
2026-05-05 18:46 41.00551 9.59341 35974 ft 388 kts 256°
2026-05-05 18:47 40.99291 9.52397 35975 ft 388 kts 256°
2026-05-05 18:47 40.98030 9.45453 35998 ft 387 kts 255°
2026-05-05 18:48 40.96769 9.38551 35974 ft 385 kts 255°
2026-05-05 18:48 40.95499 9.31635 35969 ft 388 kts 255°
2026-05-05 18:49 40.94437 9.24627 35972 ft 391 kts 263°
2026-05-05 18:49 40.93933 9.17471 35969 ft 391 kts 263°
2026-05-05 18:50 40.93409 9.10319 35967 ft 391 kts 262°
2026-05-05 18:50 40.92882 9.03172 35970 ft 390 kts 262°
2026-05-05 18:51 40.92356 8.96087 35962 ft 390 kts 262°
2026-05-05 18:51 40.91826 8.88940 35963 ft 390 kts 262°
2026-05-05 18:52 40.91296 8.81796 35958 ft 390 kts 262°
2026-05-05 18:52 40.90756 8.74663 35965 ft 390 kts 262°
2026-05-05 18:53 40.90204 8.67527 35955 ft 390 kts 261°
2026-05-05 18:53 40.89652 8.60406 35958 ft 390 kts 261°
2026-05-05 18:54 40.89103 8.53275 35964 ft 390 kts 261°
2026-05-05 18:54 40.88549 8.46149 35958 ft 390 kts 261°
2026-05-05 18:55 40.87986 8.39029 35962 ft 390 kts 261°
2026-05-05 18:55 40.87418 8.31908 35970 ft 390 kts 261°
2026-05-05 18:56 40.86852 8.24839 35959 ft 389 kts 261°
2026-05-05 18:56 40.86271 8.17731 35955 ft 389 kts 261°
2026-05-05 18:57 40.85767 8.10610 35957 ft 391 kts 266°
2026-05-05 18:57 40.86075 8.03401 35956 ft 393 kts 269°
2026-05-05 18:58 40.86440 7.96186 35984 ft 394 kts 270°
2026-05-05 18:58 40.86945 7.88983 35953 ft 394 kts 271°
2026-05-05 18:59 40.87482 7.81791 35953 ft 393 kts 270°
2026-05-05 18:59 40.87990 7.74595 35953 ft 393 kts 270°
2026-05-05 19:00 40.88476 7.67401 35947 ft 393 kts 270°
2026-05-05 19:00 40.88954 7.60205 35948 ft 393 kts 270°
2026-05-05 19:01 40.89425 7.53012 35937 ft 393 kts 270°
2026-05-05 19:01 40.89893 7.45818 35941 ft 393 kts 270°
2026-05-05 19:02 40.90356 7.38619 35945 ft 393 kts 270°
2026-05-05 19:02 40.90822 7.31419 35951 ft 393 kts 270°
2026-05-05 19:03 40.91283 7.24215 35930 ft 393 kts 270°
2026-05-05 19:03 40.91736 7.17060 35933 ft 393 kts 270°
2026-05-05 19:04 40.92191 7.09857 35933 ft 393 kts 270°
2026-05-05 19:04 40.92636 7.02649 35945 ft 393 kts 270°
2026-05-05 19:05 40.93074 6.95442 35930 ft 393 kts 269°
2026-05-05 19:05 40.93508 6.88234 35930 ft 393 kts 269°
2026-05-05 19:06 40.93938 6.81024 35927 ft 393 kts 269°
2026-05-05 19:06 40.94364 6.73820 35922 ft 393 kts 269°
2026-05-05 19:07 40.94792 6.66614 35924 ft 393 kts 269°
2026-05-05 19:07 40.95215 6.59400 35921 ft 393 kts 269°
2026-05-05 19:08 40.95620 6.52195 35921 ft 393 kts 269°
2026-05-05 19:08 40.96034 6.44988 35935 ft 392 kts 269°
2026-05-05 19:09 40.96436 6.37819 35921 ft 390 kts 269°
2026-05-05 19:09 40.96826 6.30660 35921 ft 390 kts 269°
2026-05-05 19:10 40.97220 6.23498 35917 ft 390 kts 269°
2026-05-05 19:10 40.97612 6.16339 35917 ft 390 kts 269°
2026-05-05 19:11 40.97993 6.09232 35918 ft 390 kts 269°
2026-05-05 19:11 40.98366 6.02083 35917 ft 389 kts 268°
2026-05-05 19:12 40.98743 5.94947 35917 ft 389 kts 268°
2026-05-05 19:12 40.99115 5.87817 35912 ft 388 kts 268°
2026-05-05 19:13 40.99477 5.80683 35912 ft 388 kts 268°
2026-05-05 19:13 40.99844 5.73547 35909 ft 389 kts 268°
2026-05-05 19:14 41.00198 5.66412 35907 ft 388 kts 268°
2026-05-05 19:14 41.00545 5.59282 35909 ft 388 kts 268°
2026-05-05 19:15 41.00893 5.52155 35912 ft 388 kts 268°
2026-05-05 19:15 41.01237 5.45025 35909 ft 388 kts 268°
2026-05-05 19:16 41.01572 5.37901 35909 ft 388 kts 268°
2026-05-05 19:16 41.01937 5.30768 35916 ft 388 kts 268°
2026-05-05 19:17 41.02319 5.23635 35905 ft 388 kts 268°
2026-05-05 19:17 41.02691 5.16503 35899 ft 388 kts 268°
2026-05-05 19:18 41.03055 5.09365 35901 ft 388 kts 268°
2026-05-05 19:18 41.03420 5.02231 35900 ft 388 kts 268°
2026-05-05 19:19 41.03778 4.95094 35925 ft 388 kts 268°
2026-05-05 19:19 41.04120 4.87967 35898 ft 387 kts 268°
2026-05-05 19:20 41.04454 4.80842 35899 ft 387 kts 268°
2026-05-05 19:20 41.04894 4.73714 35895 ft 390 kts 270°
2026-05-05 19:21 41.05650 4.66585 35897 ft 391 kts 272°
2026-05-05 19:21 41.06498 4.59463 35899 ft 391 kts 272°
2026-05-05 19:22 41.07312 4.52336 35892 ft 391 kts 272°
2026-05-05 19:22 41.08075 4.45250 35893 ft 391 kts 271°
2026-05-05 19:23 41.08832 4.38079 35893 ft 390 kts 271°
2026-05-05 19:23 41.09581 4.30995 35890 ft 391 kts 271°
2026-05-05 19:24 41.10330 4.23866 35890 ft 391 kts 271°
2026-05-05 19:24 41.11084 4.16731 35896 ft 391 kts 271°
2026-05-05 19:25 41.11833 4.09589 35898 ft 391 kts 271°
2026-05-05 19:25 41.12577 4.02448 35898 ft 391 kts 271°
2026-05-05 19:26 41.13312 3.95293 35902 ft 391 kts 271°
2026-05-05 19:26 41.14040 3.88139 35900 ft 391 kts 271°
2026-05-05 19:27 41.14765 3.80990 35914 ft 391 kts 271°
2026-05-05 19:27 41.15488 3.73832 35901 ft 392 kts 272°
2026-05-05 19:28 41.16206 3.66661 35901 ft 392 kts 272°
2026-05-05 19:28 41.16923 3.59482 35901 ft 392 kts 272°
2026-05-05 19:29 41.17638 3.52303 35901 ft 392 kts 272°
2026-05-05 19:29 41.18345 3.45129 35904 ft 392 kts 271°
2026-05-05 19:30 41.19046 3.37951 35904 ft 392 kts 271°
2026-05-05 19:30 41.19737 3.30776 35904 ft 392 kts 271°
2026-05-05 19:31 41.20426 3.23598 35904 ft 392 kts 271°
2026-05-05 19:31 41.21114 3.16419 35904 ft 392 kts 271°
2026-05-05 19:32 41.21687 3.10451 35907 ft 392 kts 271°
2026-05-05 19:32 41.22368 3.03271 35922 ft 392 kts 272°
2026-05-05 19:33 41.23040 2.96108 35908 ft 391 kts 272°
2026-05-05 19:33 41.23706 2.88948 35912 ft 390 kts 272°
2026-05-05 19:34 41.24371 2.81786 35908 ft 391 kts 272°
2026-05-05 19:35 41.25358 2.71039 35911 ft 391 kts 272°
2026-05-05 19:35 41.26010 2.63884 35908 ft 388 kts 272°
2026-05-05 19:36 41.26655 2.56779 35914 ft 386 kts 272°
2026-05-05 19:36 41.27294 2.49696 35912 ft 386 kts 272°
2026-05-05 19:37 41.27924 2.42609 35914 ft 386 kts 272°
2026-05-05 19:37 41.28558 2.35519 35918 ft 386 kts 272°
2026-05-05 19:38 41.29182 2.28428 35941 ft 386 kts 271°
2026-05-05 19:38 41.29796 2.21330 35920 ft 387 kts 271°
2026-05-05 19:39 41.30405 2.14267 35917 ft 387 kts 271°
2026-05-05 19:39 41.31620 2.07249 35921 ft 395 kts 282°
2026-05-05 19:40 41.33403 2.00333 35951 ft 397 kts 282°
2026-05-05 19:40 41.35186 1.93358 35921 ft 399 kts 282°
2026-05-05 19:41 41.36962 1.86340 35928 ft 401 kts 282°
2026-05-05 19:41 41.38744 1.79287 35931 ft 402 kts 282°
2026-05-05 19:42 41.40531 1.72239 35931 ft 402 kts 282°
2026-05-05 19:42 41.42307 1.65174 35937 ft 402 kts 282°
2026-05-05 19:43 41.44073 1.58111 35936 ft 402 kts 282°
2026-05-05 19:43 41.45833 1.51047 35949 ft 402 kts 282°
2026-05-05 19:44 41.47598 1.43953 35940 ft 403 kts 283°
2026-05-05 19:44 41.49370 1.36847 35942 ft 404 kts 283°
2026-05-05 19:45 41.51136 1.29733 35944 ft 404 kts 282°
2026-05-05 19:45 41.52889 1.22611 35947 ft 404 kts 282°
2026-05-05 19:46 41.54634 1.15484 35947 ft 404 kts 282°
2026-05-05 19:46 41.56386 1.08341 35951 ft 407 kts 283°
2026-05-05 19:47 41.58146 1.01137 35946 ft 408 kts 283°
2026-05-05 19:47 41.59895 0.93966 35945 ft 409 kts 283°
2026-05-05 19:48 41.61649 0.86744 35936 ft 409 kts 283°
2026-05-05 19:48 41.63404 0.79517 35932 ft 409 kts 283°
2026-05-05 19:49 41.65153 0.72285 35926 ft 409 kts 283°
2026-05-05 19:49 41.66897 0.65033 35922 ft 410 kts 283°
2026-05-05 19:50 41.68642 0.57770 35921 ft 410 kts 283°
2026-05-05 19:50 41.70382 0.50496 35922 ft 410 kts 283°
2026-05-05 19:51 41.72113 0.43222 35918 ft 410 kts 283°
2026-05-05 19:51 41.73845 0.35944 35929 ft 411 kts 283°
2026-05-05 19:52 41.75577 0.28649 35928 ft 411 kts 283°
2026-05-05 19:52 41.77297 0.21340 35940 ft 412 kts 283°
2026-05-05 19:53 41.79024 0.14001 35952 ft 414 kts 284°
2026-05-05 19:53 41.80747 0.06675 35947 ft 415 kts 284°
2026-05-05 19:54 41.82486 -0.00759 35967 ft 415 kts 284°
2026-05-05 19:54 41.84209 -0.08152 35957 ft 415 kts 284°
2026-05-05 19:55 41.85910 -0.15493 35955 ft 415 kts 284°
2026-05-05 19:55 41.87622 -0.22890 35954 ft 415 kts 284°
2026-05-05 19:56 41.89333 -0.30285 35951 ft 415 kts 284°
2026-05-05 19:56 41.91034 -0.37689 35951 ft 415 kts 284°
2026-05-05 19:57 41.92727 -0.45094 35954 ft 415 kts 284°
2026-05-05 19:57 41.94422 -0.52500 35956 ft 415 kts 284°
2026-05-05 19:58 41.96113 -0.59912 35959 ft 415 kts 283°
2026-05-05 19:58 41.97794 -0.67320 35967 ft 414 kts 283°
2026-05-05 19:59 41.99470 -0.74741 35970 ft 416 kts 283°
2026-05-05 19:59 42.01150 -0.82185 35980 ft 416 kts 284°
2026-05-05 20:00 42.02827 -0.89638 35980 ft 416 kts 284°
2026-05-05 20:00 42.04502 -0.97086 35988 ft 416 kts 284°
2026-05-05 20:01 42.06170 -1.04544 35988 ft 416 kts 284°
2026-05-05 20:01 42.07835 -1.12005 35994 ft 416 kts 284°
2026-05-05 20:02 42.09482 -1.19458 35993 ft 415 kts 284°
2026-05-05 20:02 42.11119 -1.26896 36002 ft 414 kts 284°
2026-05-05 20:03 42.12750 -1.34333 36002 ft 414 kts 284°
2026-05-05 20:03 42.14372 -1.41767 36006 ft 414 kts 284°
2026-05-05 20:04 42.15987 -1.49156 36005 ft 414 kts 284°
2026-05-05 20:04 42.17611 -1.56583 36012 ft 413 kts 284°
2026-05-05 20:05 42.19225 -1.64013 36014 ft 414 kts 284°
2026-05-05 20:05 42.20843 -1.71476 36017 ft 415 kts 284°
2026-05-05 20:06 42.22456 -1.78958 36017 ft 415 kts 284°
2026-05-05 20:06 42.24066 -1.86449 36019 ft 416 kts 284°
2026-05-05 20:07 42.25666 -1.93941 36020 ft 415 kts 284°
2026-05-05 20:07 42.27266 -2.01430 36029 ft 415 kts 284°
2026-05-05 20:08 42.28861 -2.08931 36031 ft 415 kts 284°
2026-05-05 20:08 42.30448 -2.16427 36031 ft 415 kts 283°
2026-05-05 20:08 42.30956 -2.20234 36030 ft 412 kts 270°
2026-05-05 20:09 42.30706 -2.24073 36030 ft 411 kts 260°
2026-05-05 20:09 42.29650 -2.31676 36031 ft 412 kts 259°
2026-05-05 20:10 42.28559 -2.39280 36033 ft 413 kts 259°
2026-05-05 20:10 42.27462 -2.46892 36037 ft 413 kts 259°
2026-05-05 20:11 42.26373 -2.54498 36040 ft 413 kts 259°
2026-05-05 20:11 42.25280 -2.62111 36047 ft 413 kts 259°
2026-05-05 20:12 42.24187 -2.69707 36051 ft 412 kts 259°
2026-05-05 20:12 42.23085 -2.77303 36050 ft 412 kts 259°
2026-05-05 20:13 42.21986 -2.84842 36052 ft 412 kts 259°
2026-05-05 20:13 42.20868 -2.92424 36057 ft 412 kts 259°
2026-05-05 20:14 42.19746 -2.99997 36055 ft 412 kts 259°
2026-05-05 20:14 42.18605 -3.07567 36056 ft 412 kts 258°
2026-05-05 20:15 42.17167 -3.15063 36060 ft 413 kts 255°
2026-05-05 20:15 42.15558 -3.22498 36059 ft 413 kts 255°
2026-05-05 20:16 42.13978 -3.29924 36057 ft 411 kts 256°
2026-05-05 20:16 42.12448 -3.37340 36056 ft 411 kts 256°
2026-05-05 20:17 42.10928 -3.44755 36049 ft 410 kts 256°
2026-05-05 20:17 42.09407 -3.52150 36054 ft 409 kts 256°
2026-05-05 20:18 42.07871 -3.59526 36056 ft 409 kts 256°
2026-05-05 20:18 42.06333 -3.66894 36051 ft 409 kts 256°
2026-05-05 20:19 42.04793 -3.74262 36051 ft 409 kts 256°
2026-05-05 20:19 42.03243 -3.81621 36054 ft 409 kts 256°
2026-05-05 20:20 42.01696 -3.88935 36052 ft 409 kts 256°
2026-05-05 20:20 42.00142 -3.96294 36051 ft 409 kts 256°
2026-05-05 20:21 41.98586 -4.03645 36051 ft 409 kts 256°
2026-05-05 20:21 41.97022 -4.10989 36051 ft 409 kts 256°
2026-05-05 20:22 41.95705 -4.17139 36050 ft 409 kts 256°
2026-05-05 20:22 41.94136 -4.24476 36052 ft 409 kts 256°
2026-05-05 20:23 41.92556 -4.31807 36050 ft 409 kts 256°
2026-05-05 20:23 41.90971 -4.39138 36048 ft 409 kts 256°
2026-05-05 20:24 41.89381 -4.46450 36052 ft 407 kts 256°
2026-05-05 20:24 41.87800 -4.53722 36049 ft 406 kts 256°
2026-05-05 20:25 41.86221 -4.60986 36045 ft 406 kts 256°
2026-05-05 20:25 41.84635 -4.68251 36047 ft 406 kts 256°
2026-05-05 20:26 41.83038 -4.75516 36026 ft 406 kts 256°
2026-05-05 20:26 41.81437 -4.82773 36039 ft 406 kts 256°
2026-05-05 20:27 41.79828 -4.90029 36027 ft 406 kts 256°
2026-05-05 20:27 41.78233 -4.97230 36017 ft 406 kts 256°
2026-05-05 20:28 41.76623 -5.04487 36031 ft 407 kts 256°
2026-05-05 20:28 41.75003 -5.11747 36042 ft 406 kts 256°
2026-05-05 20:29 41.73376 -5.18996 36036 ft 406 kts 255°
2026-05-05 20:29 41.71746 -5.26237 36043 ft 407 kts 255°
2026-05-05 20:30 41.70110 -5.33497 36033 ft 407 kts 255°
2026-05-05 20:30 41.68473 -5.40744 36041 ft 407 kts 255°
2026-05-05 20:31 41.66824 -5.47991 36043 ft 407 kts 255°
2026-05-05 20:31 41.65172 -5.55241 36038 ft 407 kts 255°
2026-05-05 20:32 41.63524 -5.62479 36018 ft 407 kts 255°
2026-05-05 20:32 41.61873 -5.69698 36037 ft 406 kts 255°
2026-05-05 20:33 41.60227 -5.76871 36036 ft 406 kts 255°
2026-05-05 20:33 41.58557 -5.84092 36034 ft 407 kts 255°
2026-05-05 20:34 41.56884 -5.91299 36035 ft 406 kts 255°
2026-05-05 20:34 41.55208 -5.98511 36036 ft 407 kts 255°
2026-05-05 20:35 41.53534 -6.05717 36034 ft 407 kts 255°
2026-05-05 20:35 41.51847 -6.12928 36032 ft 408 kts 255°
2026-05-05 20:36 41.50153 -6.20149 36034 ft 408 kts 255°
2026-05-05 20:36 41.48493 -6.27385 36033 ft 407 kts 259°
2026-05-05 20:37 41.47789 -6.34844 36040 ft 406 kts 265°
2026-05-05 20:37 41.47507 -6.38590 35887 ft 406 kts 265°
2026-05-05 20:37 41.47221 -6.42323 35628 ft 404 kts 265°
2026-05-05 20:37 41.46931 -6.46041 35384 ft 403 kts 265°
2026-05-05 20:38 41.46634 -6.49760 35121 ft 403 kts 265°
2026-05-05 20:38 41.46339 -6.53477 34881 ft 403 kts 265°
2026-05-05 20:38 41.46046 -6.57195 34642 ft 403 kts 265°
2026-05-05 20:38 41.45752 -6.60908 34406 ft 403 kts 265°
2026-05-05 20:39 41.45454 -6.64620 34170 ft 402 kts 265°
2026-05-05 20:39 41.45156 -6.68326 33919 ft 402 kts 265°
2026-05-05 20:39 41.44861 -6.72031 33127 ft 403 kts 265°
2026-05-05 20:39 41.44567 -6.75703 32677 ft 394 kts 265°
2026-05-05 20:40 41.44274 -6.79311 32160 ft 389 kts 265°
2026-05-05 20:40 41.43980 -6.82869 31646 ft 384 kts 265°
2026-05-05 20:40 41.43692 -6.86382 31142 ft 379 kts 265°
2026-05-05 20:40 41.43408 -6.89832 30662 ft 374 kts 265°
2026-05-05 20:41 41.43125 -6.93277 30164 ft 370 kts 266°
2026-05-05 20:41 41.42847 -6.96675 29638 ft 366 kts 266°
2026-05-05 20:41 41.42573 -7.00019 29172 ft 361 kts 266°
2026-05-05 20:41 41.42300 -7.03321 28708 ft 356 kts 266°
2026-05-05 20:42 41.42028 -7.06578 28255 ft 351 kts 266°
2026-05-05 20:42 41.41760 -7.09791 27810 ft 348 kts 266°
2026-05-05 20:42 41.41494 -7.12975 27366 ft 344 kts 266°
2026-05-05 20:42 41.41233 -7.16086 26946 ft 340 kts 266°
2026-05-05 20:43 41.40971 -7.19201 26524 ft 336 kts 266°
2026-05-05 20:43 41.40709 -7.22279 26100 ft 333 kts 266°
2026-05-05 20:43 41.40447 -7.25322 25703 ft 329 kts 266°
2026-05-05 20:43 41.40188 -7.28334 25324 ft 326 kts 266°
2026-05-05 20:44 41.39932 -7.31322 24950 ft 324 kts 266°
2026-05-05 20:44 41.39678 -7.34303 24568 ft 323 kts 266°
2026-05-05 20:44 41.39422 -7.37267 24184 ft 322 kts 266°
2026-05-05 20:44 41.39168 -7.40218 23800 ft 320 kts 266°
2026-05-05 20:45 41.38201 -7.46040 22378 ft 338 kts 249°
2026-05-05 20:45 41.37182 -7.48871 21804 ft 339 kts 249°
2026-05-05 20:45 41.36151 -7.51678 21382 ft 336 kts 248°
2026-05-05 20:46 41.35122 -7.54460 20944 ft 333 kts 249°
2026-05-05 20:46 41.34104 -7.57214 20535 ft 330 kts 249°
2026-05-05 20:46 41.33097 -7.59946 20109 ft 329 kts 249°
2026-05-05 20:46 41.32096 -7.62667 19683 ft 326 kts 249°
2026-05-05 20:47 41.31103 -7.65376 19266 ft 325 kts 249°
2026-05-05 20:47 41.30116 -7.68068 18847 ft 323 kts 249°
2026-05-05 20:47 41.29136 -7.70755 18439 ft 323 kts 249°
2026-05-05 20:47 41.28155 -7.73434 17986 ft 322 kts 249°
2026-05-05 20:48 41.27174 -7.76099 17563 ft 320 kts 249°
2026-05-05 20:48 41.26202 -7.78738 17164 ft 317 kts 248°
2026-05-05 20:48 41.25236 -7.81364 16756 ft 315 kts 248°
2026-05-05 20:48 41.24279 -7.83971 16361 ft 314 kts 248°
2026-05-05 20:49 41.23324 -7.86570 15969 ft 312 kts 248°
2026-05-05 20:49 41.22370 -7.89160 15586 ft 312 kts 248°
2026-05-05 20:49 41.21414 -7.91753 15191 ft 312 kts 248°
2026-05-05 20:49 41.20456 -7.94344 14792 ft 313 kts 247°
2026-05-05 20:50 41.19496 -7.96939 14394 ft 313 kts 247°
2026-05-05 20:50 41.18536 -7.99533 13992 ft 314 kts 247°
2026-05-05 20:50 41.17570 -8.02135 13553 ft 314 kts 246°
2026-05-05 20:50 41.16600 -8.04731 13147 ft 313 kts 247°
2026-05-05 20:51 41.15637 -8.07311 12743 ft 311 kts 247°
2026-05-05 20:51 41.14683 -8.09882 12328 ft 310 kts 247°
2026-05-05 20:51 41.13732 -8.12450 11905 ft 310 kts 247°
2026-05-05 20:51 41.12782 -8.15010 11497 ft 308 kts 247°
2026-05-05 20:52 41.11840 -8.17536 11074 ft 300 kts 247°
2026-05-05 20:52 41.10924 -8.19973 10684 ft 292 kts 246°
2026-05-05 20:52 41.10035 -8.22342 10347 ft 289 kts 247°
2026-05-05 20:52 41.09133 -8.24761 10269 ft 289 kts 247°
2026-05-05 20:53 41.08244 -8.27147 10136 ft 288 kts 247°
2026-05-05 20:53 41.07358 -8.29532 9904 ft 290 kts 247°
2026-05-05 20:53 41.06478 -8.31900 9433 ft 285 kts 247°
2026-05-05 20:53 41.05612 -8.34218 9042 ft 284 kts 247°
2026-05-05 20:54 41.04735 -8.36560 8653 ft 283 kts 247°
2026-05-05 20:54 41.03859 -8.38885 8259 ft 282 kts 247°
2026-05-05 20:54 41.02989 -8.41185 7876 ft 274 kts 247°
2026-05-05 20:54 41.02152 -8.43388 7506 ft 262 kts 247°
2026-05-05 20:55 41.01347 -8.45516 7139 ft 256 kts 248°
2026-05-05 20:55 41.00646 -8.47665 6599 ft 253 kts 261°
2026-05-05 20:55 41.00587 -8.49941 5925 ft 245 kts 285°
2026-05-05 20:55 41.01212 -8.51998 5259 ft 240 kts 302°
2026-05-05 20:56 41.02042 -8.53908 4679 ft 237 kts 303°
2026-05-05 20:56 41.02845 -8.55755 4288 ft 226 kts 303°
2026-05-05 20:56 41.03616 -8.57528 3913 ft 217 kts 302°
2026-05-05 20:56 41.04362 -8.59241 3622 ft 214 kts 302°
2026-05-05 20:57 41.05105 -8.60941 3331 ft 212 kts 302°
2026-05-05 20:57 41.05958 -8.62453 3067 ft 199 kts 320°
2026-05-05 20:57 41.07069 -8.63383 2987 ft 183 kts 339°
2026-05-05 20:57 41.08279 -8.63789 3047 ft 178 kts 348°
2026-05-05 20:58 41.09486 -8.64099 3019 ft 175 kts 348°
2026-05-05 20:58 41.10687 -8.64413 2771 ft 175 kts 348°
2026-05-05 20:58 41.11865 -8.64723 2529 ft 171 kts 348°
2026-05-05 20:58 41.13010 -8.65024 2285 ft 162 kts 348°
2026-05-05 20:59 41.14077 -8.65305 2073 ft 150 kts 348°
2026-05-05 20:59 41.15061 -8.65561 1883 ft 139 kts 348°
2026-05-05 20:59 41.15992 -8.65802 1715 ft 135 kts 348°
2026-05-05 20:59 41.16901 -8.66042 1521 ft 132 kts 349°
2026-05-05 21:00 41.17793 -8.66285 1455 ft 131 kts 347°
2026-05-05 21:00 41.18688 -8.66534 1263 ft 131 kts 348°
2026-05-05 21:00 41.19579 -8.66760 1102 ft 130 kts 349°
2026-05-05 21:00 41.20472 -8.66994 880 ft 130 kts 348°
2026-05-05 21:01 41.21363 -8.67224 675 ft 130 kts 348°
2026-05-05 21:01 41.22256 -8.67464 537 ft 132 kts 347°
2026-05-05 21:01 41.23156 -8.67697 332 ft 131 kts 349°
2026-05-05 21:01 41.24040 -8.67920 221 ft 125 kts 350°
2026-05-05 21:02 41.24692 -8.68092 202 ft 50 kts 348°
2026-05-05 21:02 41.24817 -8.68129 198 ft 7 kts 347°
2026-05-05 21:02 41.24976 -8.68169 190 ft 30 kts 350°
2026-05-05 21:02 41.25143 -8.68164 192 ft 25 kts 13°
2026-05-05 21:03 41.25281 -8.68094 179 ft 12 kts 39°
2026-05-05 21:03 41.25271 -8.68025 182 ft 7 kts 148°
2026-05-05 21:03 41.25237 -8.68009 183 ft 9 kts 165°
2026-05-05 21:03 41.25123 -8.67978 192 ft 17 kts 169°
2026-05-05 21:04 41.25024 -8.67952 198 ft 13 kts 169°
2026-05-05 21:04 41.24946 -8.67932 195 ft 9 kts 168°
2026-05-05 21:04 41.24900 -8.67917 207 ft 5 kts 164°
2026-05-05 21:04 41.24830 -8.67874 211 ft 13 kts 150°
2026-05-05 21:05 41.24763 -8.67831 215 ft 11 kts 160°
2026-05-05 21:05 41.24664 -8.67801 211 ft 17 kts 169°
2026-05-05 21:05 41.24560 -8.67774 220 ft 13 kts 168°
2026-05-05 21:05 41.24489 -8.67755 221 ft 8 kts 168°
2026-05-05 21:06 41.24448 -8.67744 223 ft 4 kts 169°
2026-05-05 21:06 41.24436 -8.67741 223 ft 2 kts 169°
2026-05-05 21:06 41.24355 -8.67726 228 ft 20 kts 170°
2026-05-05 21:06 41.24260 -8.67630 235 ft 15 kts 130°
2026-05-05 21:07 41.24183 -8.67570 238 ft 15 kts 166°
2026-05-05 21:07 41.24068 -8.67540 238 ft 17 kts 168°
2026-05-05 21:07 41.23956 -8.67511 238 ft 16 kts 169°
2026-05-05 21:07 41.23869 -8.67489 239 ft 8 kts 169°
2026-05-05 21:08 41.23859 -8.67466 240 ft 0 kts 88°
2026-05-05 21:08 41.23862 -8.67439 242 ft 5 kts 78°
2026-05-05 21:08 41.23865 -8.67418 243 ft 2 kts 78°
2026-05-05 21:08 41.23870 -8.67389 244 ft 2 kts 79°
2026-05-05 21:09 41.23870 -8.67386 244 ft 0 kts 79°